Location: Slemon Park
(46.4340°N, 63.8219°W)
Time: 14:16:20
(UTC-03:00)

ISS - All Passes

Search period start: 29 May 2016 00:00
Search period end: 08 June 2016 00:00
Orbit: 402 x 404 km, 51.6° (Epoch: 29 May)

Date Brightness Start Highest point End Pass type
(mag) Time Alt. Az. Time Alt. Az. Time Alt. Az.
29 May - 00:00:19 10° W 00:03:23 36° NNW 00:06:28 10° ENE visible
29 May - 01:37:18 10° WNW 01:40:20 34° N 01:43:22 10° ENE visible
29 May - 03:13:45 10° WNW 03:17:01 85° SSW 03:20:17 10° ESE visible
29 May - 04:51:11 10° W 04:53:02 14° SW 04:54:52 10° S visible
29 May - 21:30:59 10° SW 21:34:03 39° SE 21:37:08 10° ENE visible
29 May - 23:07:19 10° W 23:10:28 46° NNW 23:13:39 10° ENE visible
30 May - 00:44:24 10° WNW 00:47:23 31° N 00:50:21 10° ENE visible
30 May - 02:20:57 10° WNW 02:24:12 62° NNE 02:27:27 10° ESE visible
30 May - 03:57:43 10° W 04:00:27 25° SW 04:03:10 10° SSE visible
30 May - 20:38:46 10° SSW 20:41:24 23° SE 20:44:02 10° E daylight
30 May - 22:14:21 10° WSW 22:17:36 67° NNW 22:20:52 10° ENE visible
30 May - 23:51:26 10° WNW 23:54:25 31° N 23:57:23 10° ENE visible
31 May - 01:28:09 10° WNW 01:31:19 44° NNE 01:34:28 10° E visible
31 May - 03:04:39 10° WNW 03:07:47 42° SW 03:10:53 10° SE visible
31 May - 19:47:11 10° SSE 19:48:48 13° SE 19:50:25 10° ESE daylight
31 May - 21:21:30 10° WSW 21:24:47 78° SSE 21:28:03 10° ENE daylight
31 May - 22:58:23 10° WNW 23:01:26 35° N 23:04:29 10° ENE visible
01 Jun - 00:35:19 10° WNW 00:38:23 35° N 00:41:26 10° E visible
01 Jun - 02:11:45 10° WNW 02:15:02 73° SSW 02:18:16 10° SE visible
01 Jun - 03:49:36 10° WSW 03:50:57 12° SW 03:52:19 10° SSW night (unlit)
01 Jun - 20:28:51 10° SW 20:32:00 45° SE 20:35:09 10° ENE daylight
01 Jun - 22:05:20 10° W 22:08:29 43° NNW 22:11:38 10° ENE visible
01 Jun - 23:42:24 10° WNW 23:45:23 32° N 23:48:23 10° ENE visible
02 Jun - 01:18:55 10° WNW 01:22:11 70° NNE 01:25:26 10° ESE visible
02 Jun - 02:55:49 10° W 02:58:21 21° SW 03:00:53 10° S visible
02 Jun - 19:36:30 10° SSW 19:39:17 26° SE 19:42:05 10° E daylight
02 Jun - 21:12:19 10° WSW 21:15:32 59° NNW 21:18:47 10° ENE daylight
02 Jun - 22:49:25 10° WNW 22:52:23 31° N 22:55:21 10° ENE visible
03 Jun - 00:26:05 10° WNW 00:29:16 48° NNE 00:32:27 10° E visible
03 Jun - 02:02:37 10° WNW 02:05:40 36° SW 02:08:41 10° SSE visible
03 Jun - 18:44:37 10° S 18:46:37 15° SE 18:48:38 10° E daylight
03 Jun - 20:19:23 10° WSW 20:22:40 90° SE 20:25:57 10° ENE daylight
03 Jun - 21:56:21 10° WNW 21:59:22 33° N 22:02:23 10° ENE visible
03 Jun - 23:33:13 10° WNW 23:36:18 37° NNE 23:39:23 10° E visible
04 Jun - 01:09:38 10° WNW 01:12:54 63° SSW 01:16:06 10° SE visible
04 Jun - 02:48:24 10° SW 02:48:45 10° SW 02:49:06 10° SW night (unlit)
04 Jun - 19:26:38 10° SW 19:29:49 53° SSE 19:33:02 10° ENE daylight
04 Jun - 21:03:14 10° W 21:06:21 40° NNW 21:09:29 10° ENE daylight
04 Jun - 22:40:17 10° WNW 22:43:17 32° N 22:46:17 10° ENE visible
05 Jun - 00:16:46 10° WNW 00:20:02 80° NNE 00:23:18 10° ESE visible
05 Jun - 01:53:49 10° W 01:56:08 18° SW 01:58:26 10° S visible
05 Jun - 18:34:08 10° SSW 18:37:03 31° SE 18:39:59 10° ENE daylight
05 Jun - 20:10:10 10° W 20:13:23 53° NNW 20:16:36 10° ENE daylight
05 Jun - 21:47:16 10° WNW 21:50:14 31° N 21:53:13 10° ENE visible
05 Jun - 23:23:53 10° WNW 23:27:06 53° NNE 23:30:19 10° E visible
06 Jun - 01:00:30 10° WNW 01:03:26 31° SW 01:06:21 10° SSE visible
06 Jun - 17:42:02 10° S 17:44:20 18° SE 17:46:39 10° E daylight
06 Jun - 19:17:10 10° WSW 19:20:26 80° NNW 19:23:43 10° ENE daylight
06 Jun - 20:54:11 10° WNW 20:57:11 32° N 21:00:11 10° ENE daylight
06 Jun - 22:30:59 10° WNW 22:34:06 40° NNE 22:37:13 10° E visible
07 Jun - 00:07:26 10° WNW 00:10:38 54° SSW 00:13:49 10° SE visible
07 Jun - 16:51:23 10° SE 16:51:41 10° SE 16:51:58 10° SE daylight
07 Jun - 18:24:19 10° SW 18:27:32 63° SSE 18:30:47 10° ENE daylight
07 Jun - 20:01:02 10° W 20:04:07 37° NNW 20:07:13 10° ENE daylight
07 Jun - 21:38:02 10° WNW 21:41:04 33° N 21:44:05 10° ENE visible
07 Jun - 23:14:29 10° WNW 23:17:46 90° W 23:21:01 10° ESE visible
